Regional Weather Roundup
Issued by NWS

Home | Current Version | Previous Version | Text Only | Print | Product List | Glossary Off
Versions: 1 2 3 4 5 6 7 8 9 10 11 12 13 14 15 16 17 18 19 20 21 22 23 24 25 26 27 28 29 30 31 32 33 34 35 36 37 38 39 40 41 42 43 44 45 46 47 48 49 50

000
ASUS43 KDTX 171310
RWRMI
MICHIGAN HOURLY REGIONAL WEATHER ROUNDUP
NATIONAL WEATHER SERVICE DETROIT/PONTIAC MI
900 AM EDT THU APR 17 2014

NOTE: "FAIR" INDICATES FEW OR NO CLOUDS BELOW 12,000 FEET WITH NO
SIGNIFICANT WEATHER AND/OR OBSTRUCTION TO VISIBILITY.

MIZ047>049-052>055-059>063-066>070-074>076-081>083-171400-
SOUTHEAST LOWER MICHIGAN

CITY           SKY/WX    TMP DP  RH WIND       PRES   REMARKS
ADRIAN         PTSUNNY   39  26  59 SE8       30.32S WCI  33
ALMA           PTSUNNY   35  25  66 E6        30.31S WCI  30
ANN ARBOR      MOSUNNY   38  30  73 SE7       30.33S WCI  33
BAD AXE        MOSUNNY   36  24  62 SE10G17   30.37F WCI  28
CARO           MOSUNNY   37  23  56 SE13      30.34F WCI  29
DETROIT CITY   MOSUNNY   42  28  57 SE13      30.36S
DETROIT        PTSUNNY   40  29  64 E6        30.35S
FLINT          PTSUNNY   39  25  57 SE12G18   30.33S WCI  32
GROSSE ILE     MOSUNNY   43  28  56 SE8       30.34S
HILLSDALE      PTSUNNY   39  23  52 SE10      30.28S WCI  32
HOWELL         MOSUNNY   38  27  64 SE13      30.30F WCI  30

CITY           SKY/WX    TMP DP  RH WIND       PRES   REMARKS
JACKSON        PTSUNNY   38  28  67 SE9       30.29S WCI  31
LAMBERTVILLE   MOSUNNY   43  23  45 SE12      30.33S
LANSING        MOSUNNY   37  26  64 SE15      30.29S WCI  28
LAPEER         FAIR      34  26  70 SE8       30.35S WCI  28
MASON          PTSUNNY   36  29  74 SE9       30.30R WCI  29
MONROE         MOSUNNY   45  25  45 SE9       30.33S
MT. CLEMENS    CLOUDY    40  29  65 E14       30.35F WCI  32
PONTIAC        PTSUNNY   38  26  62 SE10      30.33S WCI  31
PORT HOPE        N/A     36  27  69 SE18      30.37F WCI  26
PORT HURON     PTSUNNY   39  27  60 SE9       30.39S WCI  33
TRI CITIES     PTSUNNY   36  23  59 SE14      30.34S WCI  27
TROY           MOSUNNY   40  27  60 SE5       30.36S
SAGINAW HB     PTSUNNY   36  25  64 SE8       30.33F WCI  29
YPSILANTI      MOSUNNY   41  30  65 E7        30.34S
$$
MIZ043>046-050>051-056>058-064>065-071>073-077>080-171400-
SOUTHWEST LOWER MICHIGAN

CITY           SKY/WX    TMP DP  RH WIND       PRES   REMARKS
BATTLE CREEK   MOSUNNY   41  23  48 SE13      30.25F
BENTON HARBOR  CLOUDY    42  26  53 SE15      30.21R
BIG RAPIDS     PTSUNNY   35  24  64 SE15      30.26R WCI  25
COLDWATER      MOSUNNY   39  23  52 SE8       30.27S WCI  34
FREMONT        FAIR      38  25  58 SE15      30.22S WCI  30
HOLLAND        PTSUNNY   43  26  51 SE16      30.22S
GRAND RAPIDS   PTSUNNY   40  27  59 SE10      30.25S WCI  33
IONIA          FAIR      37  28  70 SE10G16   30.27S WCI  30
KALAMAZOO      MOSUNNY   41  24  51 S10G20    30.25S
LUDINGTON      CLOUDY    37  25  62 SE15G23   30.19R WCI  28
MARSHALL       MOSUNNY   40  23  52 SE10      30.27R WCI  33
MOUNT PLEASANT PTSUNNY   35  24  63 E12       30.31R WCI  27
MUSKEGON       CLOUDY    41  24  51 SE17      30.21S
SOUTH HAVEN    PTSUNNY   42  25  50 SE15      30.21F
$$
MIZ016>042-171400-
NORTHERN LOWER MICHIGAN

CITY           SKY/WX    TMP DP  RH WIND       PRES   REMARKS
ALPENA         CLOUDY    34  26  72 SE20G25   30.39S WCI  23
BEAVER ISLAND  PTSUNNY   34  27  75 E15       30.27F WCI  24
BELLAIRE       CLOUDY    40  19  44 SE17      30.26S WCI  31
CADILLAC       MOSUNNY   33  22  63 SE13G20   30.23S WCI  23
CHARLEVOIX     CLOUDY    38  22  53 E12       30.29F WCI  30
FRANKFORT      CLOUDY    38  22  52 SE12G22   30.19S WCI  31
GAYLORD        CLOUDY    33  21  61 SE13G22   30.29S WCI  24
GRAYLING       CLOUDY    34  21  59 E13       30.30S WCI  25
HARBOR SPRINGS CLOUDY    36  24  60 E10       30.30F WCI  29
HOUGHTON LAKE  CLOUDY    34  22  61 SE14      30.29F WCI  25
MANISTEE       CLOUDY    37  19  48 SE10G23   30.20S WCI  30
OSCODA         PTSUNNY   37  26  65 E14G23    30.38S WCI  28
PELLSTON       CLOUDY    36  22  56 SE14G21   30.33S WCI  27
ROGERS CITY    PTSUNNY   35  26  70 SE14G20   30.39F WCI  26
TRAVERSE CITY  CLOUDY    38  20  48 SE10G24   30.23S WCI  31
$$
MIZ007>008-015-171400-
EASTERN UPPER MICHIGAN

CITY           SKY/WX    TMP DP  RH WIND       PRES   REMARKS
KINROSS        CLOUDY    28  28 100 E23       30.37F WCI  14
MACKINAC ISLAN CLOUDY    33  30  90 E16G29    30.34F WCI  22
NEWBERRY       CLOUDY    30  28  90 E14G23    30.30F WCI  20
S. S. MARIE    CLOUDY    30  26  85 E10G22    30.40R WCI  21
MUNISING         N/A     34  26  72 SE13G24   30.23F WCI  25
$$
MIZ004>006-011>014-085-171400-
CENTRAL UPPER MICHIGAN

CITY           SKY/WX    TMP DP  RH WIND       PRES   REMARKS
MANISTIQUE     CLOUDY    32  29  88 E10G25    30.25F WCI  24
ESCANABA       CLOUDY    34  27  75 E21       30.18S WCI  22
MENOMINEE      CLOUDY    34  30  86 SE12      30.15S WCI  25
SAWYER-GWINN   LGT SNOW  30  27  86 SE15      30.17F WCI  19
$$
MIZ001>003-009>011-084-171400-
WESTERN UPPER MICHIGAN

CITY           SKY/WX    TMP DP  RH WIND       PRES   REMARKS
IRON MOUNTAIN  LGT SNOW  30  28  93 E9        30.12S FOG     WCI  22
HOUGHTON       HVY SNOW  30  27  88 E16       30.17S VSB<1/4 WCI  19
COPPER HARBOR    N/A     32  29  88 S9G20     30.22S WCI  24
IRONWOOD       CLOUDY    30  27  86 NE3       30.05S
$$

ABBREVIATIONS USED IN REMARKS
   TC - TEMPERATURE IN CELSIUS
  WCI - WIND CHILL INDEX
   HX - HEAT INDEX
  VSB - VISIBILITY




USA.gov is the U.S. government's official web portal to all federal, state and local government web resources and services.